www.pogodaiklimat.ru

Погода и климат >> Архив погоды >> Греция >> Thessaloniki


ПОГОДА в Thessaloniki

  • Прогноз погоды в Thessaloniki
  • Монитор погоды в Thessaloniki
  • Климат города

АРХИВ ПОГОДЫ в Thessaloniki

Время (UTC), дата Ветер
(напр.,м/с)
 
Видим.   Явления Облачность Т
(С)
Тd
(С)
f
(%)
Тe
(С)
Тes
(С)
Комфортность P
(гПа)
Po
(гПа)
Тmin
(С)
Tmax
(С)
R
(мм)
R24
(мм)
S
(см)
03 6.11 В 3
{5}
10 км 1/1 300 м
[Cu med, cong]
+7.6 +4.8 82 +5 +5 1021.7 1021.6
06 6.11
{3}
8000 м дымка ясно +7.8 +5.4 85 1022.2 1022.2 +7.2
09 6.11 З 2
{4}
10 км ясно +15.0 +9.9 72 +15 +20 1022.8 1022.7
12 6.11 З 3
{5}
10 км ясно +18.8 +10.2 57 +20 +24 1020.9 1020.9
15 6.11 Ю 5
{6}
10 км 5/5 600 м
[Cu hum]
+18.6 +9.0 54 +19 +19 1020.8 1020.8
18 6.11 В 3
{5}
10 км 3/3 600 м
[Cu hum]
+14.0 +7.3 64 +13 +13 1021.9 1021.8 +19.6
21 6.11
{5}
10 км 3/3 600 м
[Cu hum]
+10.8 +6.1 73 1022.7 1022.6
00 7.11 В 3
{5}
10 км 3/3 600 м
[Cu hum Ac trans]
+10.4 +6.5 77 +8 +8 1022.7 1022.6
03 7.11 В 3
{5}
10 км 3/3 600 м
[Cu hum]
+8.4 +5.4 81 +6 +6 1022.2 1022.1
06 7.11 В 2 10 км 4/1 900 м
[Cu hum Ac trans]
+9.2 +6.0 80 +8 +8 1023.0 1022.9 +8.4
09 7.11 СЗ 2
{3}
10 км 9/1 450 м
[St Ac trans]
+15.4 +10.3 72 +15 +17 1023.1 1023.1
12 7.11
{5}
10 км 9/5 450 м
[St Ac trans]
+17.0 +9.3 60 1021.7 1021.6
15 7.11 штиль 0
{2}
10 км 9/3 900 м
[Cu med, cong Ac trans]
+17.4 +9.2 59 +17 +18 1021.1 1021.0
18 7.11
{3}
10 км 9/4 900 м
[Cu med, cong Ac trans]
+15.2 +8.2 63 1021.4 1021.3 +17.5
21 7.11 В 2
{3}
10 км 9/4 900 м
[Cu med, cong Ac trans]
+14.6 +8.6 67 +15 +15 1021.4 1021.4
00 8.11
{3}
10 км 9/4 360 м
[St Ac trans]
+14.2 +8.7 69 1020.7 1020.7
03 8.11
{3}
10 км 9/4 360 м
[St Ac trans]
+14.2 +8.6 69 1020.2 1020.2
06 8.11 10 км 9/5 360 м
[St Ac trans]
+14.0 +8.4 69 1020.8 1020.7 +13.8
09 8.11
{3}
10 км 9/5 300 м
[St Ac trans]
+16.4 +11.3 72 1021.3 1021.2
12 8.11 Ю 4
{5}
10 км 9/6 240 м
[St Ac As]
+15.8 +11.5 76 +15 +16 1020.2 1020.1
15 8.11 Ю 3
{7}
10 км 9/6 240 м
[Frnb Ac As]
+14.8 +10.0 73 +14 +14 1020.2 1020.2
18 8.11
{4}
10 км {дождь} 9/8 300 м
[Frnb Ac As]
+14.0 +11.3 84 1020.8 1020.7 +16.7 0.7
21 8.11
{3}
10 км 8/5 300 м
[St Ac As]
+12.8 +10.7 87 1021.2 1021.2
00 9.11
{4}
10 км 8/5 300 м
[St Ac As]
+12.2 +9.9 86 1021.4 1021.4
03 9.11
{4}
10 км 8/5 300 м
[St Ac As]
+11.6 +9.3 86 1021.0 1020.9
06 9.11 В 3
{4}
10 км 1/1 300 м
[Cu hum]
+9.6 +7.6 87 +8 +8 1021.6 1021.5 +9.0
09 9.11
{4}
10 км 3/3 600 м
[Cu hum]
+16.2 +8.4 60 1022.3 1022.3
12 9.11 З 3
{8}
10 км 3/3 600 м
[Cu hum]
+18.6 +7.1 47 +19 +22 1020.5 1020.4
15 9.11 ЮЗ 3
{7}
10 км 3/3 600 м
[Cu hum Ac und]
+17.4 +5.6 46 +18 +18 1019.9 1019.9
18 9.11 В 3
{4}
10 км 3/3 600 м
[Cu hum Ac und]
+12.0 +5.9 66 +11 +11 1020.8 1020.8 +18.8
21 9.11 В 3
{4}
10 км 3/3 600 м
[Cu hum]
+10.4 +6.3 76 +9 +9 1021.1 1021.1
00 10.11 В 4
{5}
10 км 3/3 600 м
[Cu hum]
+9.8 +6.3 79 +7 +7 1020.6 1020.5
03 10.11
{3}
10 км 3/3 300 м
[St]
+9.4 +6.2 80 1020.4 1020.3
06 10.11 В 2 10 км 4/4 300 м
[St Ac und]
+9.2 +6.6 84 +7 +8 1020.7 1020.7 +7.7
09 10.11 З 3
{6}
10 км 5/1 750 м
[Cu med, cong Ac und]
+14.2 +9.3 72 +13 +16 1021.1 1021.0
12 10.11 З 4
{6}
10 км 4/1 750 м
[Cu med, cong Ac und]
+17.8 +8.5 54 +18 +20 1019.8 1019.8
15 10.11 ЮЗ 3
{8}
10 км 4/1 750 м
[Cu med, cong Ac und]
+17.0 +7.0 52 +17 +17 1019.2 1019.2
18 10.11 В 2
{3}
10 км 4/1 750 м
[Cu med, cong Ac und]
+12.8 +6.5 65 +12 +12 1020.2 1020.2 +18.0
21 10.11 В 3
{5}
10 км 1/1 600 м
[Cu med, cong Ac und]
+9.2 +4.6 73 +7 +7 1020.8 1020.8
00 11.11 В 3
{5}
10 км 1/1 600 м
[Cu med, cong Ac und]
+8.0 +3.8 75 +5 +5 1021.4 1021.3
03 11.11 В 3
{5}
10 км 1/1 600 м
[Cu med, cong Ac und]
+8.6 +4.1 73 +6 +6 1021.6 1021.6
06 11.11 10 км 5/1 750 м
[Cu med, cong Ac und]
+8.8 +4.7 75 1022.6 1022.6 +8.0
09 11.11 СЗ 2
{5}
10 км 5/3 600 м
[Cu med, cong Ac trans]
+14.8 +8.4 65 +15 +17 1023.7 1023.7
12 11.11 З 3
{8}
10 км 3/1 600 м
[Cu med, cong Ac trans]
+18.6 +4.8 40 +19 +22 1023.0 1023.0
15 11.11
{5}
10 км 4/1 600 м
[Cu med, cong Ac trans Ci fib]
+17.6 +4.1 41 1023.4 1023.3
18 11.11 В 3
{4}
10 км 3/1 600 м
[Cu hum Ci fib]
+11.4 +3.7 59 +10 +10 1024.5 1024.5 +19.0
21 11.11 В 3
{5}
10 км 1/1 600 м
[Cu hum]
+9.0 +3.3 67 +7 +7 1025.8 1025.8
00 12.11 В 3
{5}
10 км 1/1 600 м
[Cu hum]
+8.2 +3.4 72 +6 +6 1026.2 1026.1
03 12.11 В 3
{5}
10 км 1/1 600 м
[Cu hum]
+6.2 +2.4 77 +3 +3 1026.8 1026.8
06 12.11 В 2
{4}
8000 м дымка ясно +6.4 +2.9 78 +5 +5 1027.9 1027.9 +5.8
09 12.11
{5}
10 км ясно +13.8 +8.3 69 1029.3 1029.3
12 12.11 З 3
{7}
10 км 1/1 600 м
[Cu hum]
+18.2 +7.7 50 +19 +22 1027.6 1027.5
15 12.11 ЮЗ 2
{8}
10 км ясно +17.8 +4.4 41 +18 +18 1026.9 1026.8
18 12.11 В 3
{5}
10 км ясно +11.2 +4.1 62 +10 +10 1028.4 1028.3 +18.8
21 12.11 В 3
{5}
10 км ясно +9.6 +4.0 68 +7 +7 1029.3 1029.3
00 13.11 В 4
{5}
10 км ясно +8.4 +3.6 72 +6 +6 1029.3 1029.3

 

Местоположение метеостанции Thessaloniki (Греция): широта 40.52 долгота 22.97 высота над уровнем моря 4 м.

В архиве по умолчанию представлена погода в Thessaloniki за последнюю неделю. Архивные данные за месяц целиком и за предыдущие месяцы, начиная с января 2011 года, Вы можете получить, выбрав интересующий диапазон дат из раскрывающегося списка и нажав кнопку "Ввод!".


*Определитесь, кто Вы:
робот инопланетянин человек

Внимание! Время в таблицах - всемирное. Для получения местного времени необходимо прибавить поправку, которая в Thessaloniki равна 2 ч.

Смотрите также архив погоды в соседних городах и на ближайших метеорологических станциях:

Погода в Serrai (Греция) (79 км)
Погода в Gevgelija (Македония) (80 км)
Погода в Kozani (Греция) (104 км)
Погода в Strumica (Македония) (105 км)
Погода в Larissa (Греция) (110 км)
Погода в Sandanski (Болгария) (114 км)
Погода в Demir Kapija (Македония) (117 км)
Погода в Berovo (Македония) (134 км)
Погода в Florina (Греция) (136 км)
Погода в Kastoria (Греция) (143 км)

Пояснения к столбцам:

Ветер - указаны скорость ветра в м/с - средняя за 10 мин, порывы в срок и между сроками (в фигурных скобках) и направление, откуда дует ветер: С - северный, СВ - северо-восточный, В - восточный, ЮВ - юго-восточный, Ю - южный, ЮЗ - юго-западный, З - западный, СЗ - северо-западный.
Видимость - горизонтальная дальность видимости в метрах или километрах. При видимости от 1 до 10 км при отсутствии осадков обычно наблюдается дымка, при ухудшении видимости до 1 км и менее - туман. В сухую погоду видимость может ухудшаться дымом, пылью или мглою.
Явления - указаны атмосферные явления, наблюдавшиеся в срок или в последний час перед сроком; фигурными скобками обозначены явления, наблюдавшиеся между сроками (за 1-3 часа до срока); квадратными скобками обозначены град или гололедные отложения с указанием их диаметра в мм.
Облачность - указаны через наклонную черту общая и нижняя облачность в баллах и высота нижней границы облаков в метрах; квадратными скобками обозначены формы облаков: Ci - перистые, Cs - перисто-слоистые, Cc - перисто-кучевые, Ac - высококучевые, As - высокослоистые, Sc - слоисто-кучевые, Ns - слоисто-дождевые, Cu - кучевые, Cb - кучево-дождевые. Подробнее классификацию облаков см. в Атласе облаков (PDF).
T - Температура воздуха - температура, измеренная на высоте 2 м над землей.
Td - Температура точки росы - температура, при понижении до которой содержащийся в воздухе водяной пар достигнет насыщения.
f - Относительная влажность воздуха - влажноcть воздуха, измеренная на высоте 2 м над землей.
Te - Эффективная температура - температура, которую ощущает одетый по сезону человек в тени. Характеристика душности погоды. При расчете учитывается влияние влажности воздуха и скорости ветра на теплоощущения человека.
Tes - Эффективная температура на солнце - температура, которую ощущает человек, с поправкой на солнечный нагрев. Характеристика знойности погоды. Зависит от высоты солнца над горизонтом, облачности и скорости ветра. Ночью, в пасмурную погоду, а также при ветре 12 м/с и более поправка равна нулю.
P - Атмосферное давление - приведенное к уровню моря атмосферное давление.
Po - Атмосферное давление - измеренное на уровне метеостанции атмосферное давление.
Tmin - Минимальная температура - минимум температуры воздуха на высоте 2 м над землей.
Tmax - Максимальная температура - максимум температуры воздуха на высоте 2 м над землей.
R - Количество осадков - Количество выпавших осадков за период времени, мм. При наведении курсора мыши на число - период времени, за который выпало указанное количество осадков.
R24 - Количество осадков - Количество выпавших осадков за 24 часа, мм.
S - Снежный покров - Высота снежного покрова, см. При наведении курсора мыши на число - состояние снежного покрова и степень покрытия местности в баллах.